When you browse on this site, cookies collect data to enhance your experience and personalize the content and advertising you see.
Visit our Privacy Policy to learn more. By continuing to use the site, you agree to this use of cookies and data.
  • In Italy
  • List of Countries
  • For 7 days
  • Water Temperature
  • Satellite Maps
  • Weather Map
  • Weather Widgets
  • user-avatar
    Login

    Hourly Weather Tolbuzino

    Today, 24 April, Wednesday

    Time Temperature Precipitation Wind Pressure Humidity
    00:00 +13°C° 0 mm 2 mps 753 mmHg 61%
    01:00 +12°C° 0 mm 2 mps 753 mmHg 62%
    02:00 +10°C° 0 mm 2 mps 753 mmHg 64%
    03:00 +10°C° 0 mm 2 mps 753 mmHg 65%
    04:00 +10°C° 0 mm 2 mps 754 mmHg 67%
    05:00 +9°C° 0 mm 2 mps 754 mmHg 68%
    06:00 +9°C° 0 mm 2 mps 754 mmHg 70%
    07:00 +11°C° 0 mm 3 mps 754 mmHg 65%
    08:00 +12°C° 0 mm 3 mps 754 mmHg 59%
    09:00 +14°C° 0 mm 3 mps 754 mmHg 54%
    10:00 +17°C° 0 mm 3 mps 754 mmHg 49%
    11:00 +18°C° 0 mm 3 mps 754 mmHg 45%
    12:00 +19°C° 0 mm 3 mps 754 mmHg 40%
    13:00 +20°C° 0 mm 3 mps 754 mmHg 39%
    14:00 +21°C° 0 mm 3 mps 753 mmHg 37%
    15:00 +21°C° 0 mm 3 mps 753 mmHg 36%
    16:00 +21°C° 0 mm 3 mps 753 mmHg 37%
    17:00 +21°C° 0 mm 3 mps 753 mmHg 39%
    18:00 +21°C° 0 mm 3 mps 753 mmHg 40%
    19:00 +19°C° 0 mm 2 mps 753 mmHg 44%
    20:00 +18°C° 0 mm 2 mps 753 mmHg 47%
    21:00 +16°C° 0 mm 2 mps 753 mmHg 50%
    22:00 +16°C° 0 mm 2 mps 753 mmHg 51%
    23:00 +15°C° 0 mm 2 mps 753 mmHg 53%

    Tomorrow, 25 April, Thursday

    Time Temperature Precipitation Wind Pressure Humidity
    00:00 +14°C° 0 mm 2 mps 753 mmHg 54%
    01:00 +14°C° 0 mm 2 mps 753 mmHg 56%
    02:00 +13°C° 0 mm 2 mps 753 mmHg 58%
    03:00 +13°C° 0 mm 2 mps 753 mmHg 60%
    04:00 +12°C° 0 mm 2 mps 753 mmHg 62%
    05:00 +12°C° 0 mm 2 mps 753 mmHg 63%
    06:00 +12°C° 0 mm 2 mps 753 mmHg 65%
    07:00 +14°C° 0 mm 2 mps 753 mmHg 60%
    08:00 +16°C° 0 mm 2 mps 753 mmHg 55%
    09:00 +17°C° 0 mm 2 mps 754 mmHg 49%
    10:00 +19°C° 0 mm 2 mps 753 mmHg 45%
    11:00 +20°C° 0 mm 2 mps 753 mmHg 41%
    12:00 +22°C° 0 mm 3 mps 753 mmHg 37%
    13:00 +23°C° 0 mm 2 mps 753 mmHg 35%
    14:00 +23°C° 0 mm 2 mps 753 mmHg 34%
    15:00 +24°C° 0 mm 2 mps 752 mmHg 33%
    16:00 +24°C° 0 mm 2 mps 752 mmHg 35%
    17:00 +24°C° 0 mm 2 mps 752 mmHg 36%
    18:00 +23°C° 0 mm 1 mps 751 mmHg 38%
    19:00 +22°C° 0 mm 1 mps 751 mmHg 41%
    20:00 +21°C° 0 mm 1 mps 751 mmHg 45%
    21:00 +19°C° 0 mm 1 mps 751 mmHg 49%
    22:00 +19°C° 0 mm 1 mps 751 mmHg 50%
    23:00 +19°C° 0 mm 1 mps 751 mmHg 51%

    Day after tomorrow, 26 April, Friday

    Time Temperature Precipitation Wind Pressure Humidity
    00:00 +19°C° 0 mm 1 mps 751 mmHg 51%
    01:00 +18°C° 0.3 mm 1 mps 751 mmHg 55%
    02:00 +16°C° 0.3 mm 1 mps 751 mmHg 58%
    03:00 +15°C° 0.3 mm 1 mps 751 mmHg 62%
    04:00 +15°C° 0.2 mm 1 mps 751 mmHg 64%
    05:00 +15°C° 0.2 mm 1 mps 751 mmHg 66%
    06:00 +14°C° 0.2 mm 1 mps 751 mmHg 68%
    07:00 +15°C° 0.5 mm 1 mps 751 mmHg 64%
    08:00 +18°C° 0.5 mm 1 mps 751 mmHg 60%
    09:00 +19°C° 0.5 mm 1 mps 751 mmHg 56%
    10:00 +20°C° 0.1 mm 1 mps 751 mmHg 52%
    11:00 +20°C° 0.1 mm 2 mps 751 mmHg 48%
    12:00 +21°C° 0.1 mm 3 mps 751 mmHg 45%
    13:00 +21°C° 0.2 mm 2 mps 750 mmHg 46%
    14:00 +21°C° 0.2 mm 2 mps 750 mmHg 47%
    15:00 +21°C° 0.2 mm 2 mps 750 mmHg 49%
    16:00 +21°C° 0 mm 2 mps 750 mmHg 50%
    17:00 +20°C° 0 mm 2 mps 749 mmHg 50%
    18:00 +20°C° 0 mm 2 mps 749 mmHg 51%
    19:00 +19°C° 0.9 mm 2 mps 749 mmHg 57%
    20:00 +19°C° 0.9 mm 1 mps 749 mmHg 63%
    21:00 +16°C° 0.9 mm 1 mps 749 mmHg 68%
    22:00 +16°C° 0.1 mm 1 mps 749 mmHg 71%
    23:00 +15°C° 0.1 mm 1 mps 748 mmHg 73%

    27 April, Saturday

    Time Temperature Precipitation Wind Pressure Humidity
    00:00 +14°C° 0.1 mm 1 mps 748 mmHg 75%
    01:00 +14°C° 0.1 mm 2 mps 748 mmHg 75%
    02:00 +14°C° 0.1 mm 2 mps 748 mmHg 75%
    03:00 +14°C° 0.1 mm 2 mps 748 mmHg 74%
    04:00 +13°C° 0 mm 2 mps 747 mmHg 76%
    05:00 +13°C° 0 mm 2 mps 747 mmHg 77%
    06:00 +13°C° 0 mm 2 mps 747 mmHg 78%
    07:00 +13°C° 0 mm 3 mps 747 mmHg 72%
    08:00 +16°C° 0 mm 3 mps 747 mmHg 67%
    09:00 +17°C° 0 mm 3 mps 746 mmHg 61%
    10:00 +19°C° 0 mm 3 mps 746 mmHg 54%
    11:00 +20°C° 0 mm 4 mps 746 mmHg 47%
    12:00 +21°C° 0 mm 4 mps 746 mmHg 40%
    13:00 +21°C° 0 mm 3 mps 745 mmHg 44%
    14:00 +20°C° 0 mm 3 mps 745 mmHg 47%
    15:00 +20°C° 0 mm 2 mps 745 mmHg 51%
    16:00 +20°C° 0 mm 2 mps 744 mmHg 53%
    17:00 +19°C° 0 mm 2 mps 744 mmHg 55%
    18:00 +19°C° 0 mm 2 mps 744 mmHg 58%
    19:00 +18°C° 0.4 mm 2 mps 744 mmHg 62%
    20:00 +17°C° 0.4 mm 2 mps 744 mmHg 66%
    21:00 +15°C° 0.4 mm 2 mps 744 mmHg 70%
    22:00 +15°C° 0.2 mm 2 mps 743 mmHg 73%
    23:00 +15°C° 0.2 mm 1 mps 743 mmHg 75%

    28 April, Sunday

    Time Temperature Precipitation Wind Pressure Humidity
    00:00 +14°C° 0.2 mm 1 mps 743 mmHg 77%
    01:00 +14°C° 0.2 mm 1 mps 743 mmHg 79%
    02:00 +14°C° 0.2 mm 1 mps 743 mmHg 81%
    03:00 +14°C° 0.2 mm 1 mps 743 mmHg 84%
    04:00 +13°C° 0.5 mm 1 mps 743 mmHg 86%
    05:00 +13°C° 0.5 mm 1 mps 743 mmHg 88%
    06:00 +13°C° 0.5 mm 1 mps 743 mmHg 89%
    07:00 +14°C° 0.1 mm 1 mps 743 mmHg 87%
    08:00 +14°C° 0.1 mm 2 mps 743 mmHg 84%
    09:00 +15°C° 0.1 mm 2 mps 743 mmHg 82%
    10:00 +16°C° 0.5 mm 2 mps 743 mmHg 77%
    11:00 +17°C° 0.5 mm 2 mps 744 mmHg 72%
    12:00 +18°C° 0.5 mm 2 mps 744 mmHg 68%
    13:00 +17°C° 0.9 mm 3 mps 744 mmHg 70%
    14:00 +17°C° 0.9 mm 4 mps 744 mmHg 73%
    15:00 +15°C° 0.9 mm 5 mps 744 mmHg 76%
    16:00 +15°C° 0.1 mm 6 mps 745 mmHg 74%
    17:00 +14°C° 0.1 mm 6 mps 745 mmHg 72%
    18:00 +14°C° 0.1 mm 6 mps 745 mmHg 70%
    19:00 +13°C° 0 mm 6 mps 745 mmHg 71%
    20:00 +12°C° 0 mm 5 mps 746 mmHg 71%
    21:00 +10°C° 0 mm 5 mps 746 mmHg 71%
    22:00 +9°C° 0 mm 5 mps 747 mmHg 68%
    23:00 +8°C° 0 mm 5 mps 747 mmHg 65%

    29 April, Monday

    Time Temperature Precipitation Wind Pressure Humidity
    00:00 +7°C° 0 mm 6 mps 747 mmHg 63%
    01:00 +6°C° 0 mm 5 mps 748 mmHg 64%
    02:00 +5°C° 0 mm 5 mps 748 mmHg 66%
    03:00 +5°C° 0 mm 5 mps 748 mmHg 68%
    04:00 +3°C° 0 mm 5 mps 749 mmHg 67%
    05:00 +3°C° 0 mm 5 mps 749 mmHg 66%
    06:00 +2°C° 0 mm 5 mps 749 mmHg 65%
    07:00 +3°C° 0 mm 6 mps 750 mmHg 60%
    08:00 +4°C° 0 mm 6 mps 750 mmHg 55%
    09:00 +5°C° 0 mm 7 mps 750 mmHg 50%
    10:00 +6°C° 0 mm 7 mps 750 mmHg 47%
    11:00 +8°C° 0 mm 6 mps 750 mmHg 44%
    12:00 +9°C° 0 mm 6 mps 751 mmHg 41%
    13:00 +10°C° 0 mm 6 mps 750 mmHg 41%
    14:00 +10°C° 0 mm 6 mps 750 mmHg 40%
    15:00 +10°C° 0 mm 5 mps 750 mmHg 40%
    16:00 +10°C° 0 mm 5 mps 750 mmHg 41%
    17:00 +10°C° 0 mm 5 mps 750 mmHg 42%
    18:00 +9°C° 0 mm 5 mps 750 mmHg 44%
    19:00 +8°C° 0 mm 4 mps 750 mmHg 48%
    20:00 +7°C° 0 mm 4 mps 751 mmHg 52%
    21:00 +7°C° 0 mm 3 mps 751 mmHg 57%
    22:00 +5°C° 0 mm 3 mps 751 mmHg 58%
    23:00 +4°C° 0 mm 3 mps 751 mmHg 58%
    Show more